DW4381 Weather Reports


Display with metric or nautical units.
time (UTC)temp
F
wind
direction
speed
MPH
gust
MPH
rain 1hr
in
rain 24hr
in
rain mn
in
humidity
%
barometer
mb
20210512144628 36 10 0.0 0.0 0.01 0.04 0.00 70 1022.6
20210512144128 36 10 0.0 5.0 0.01 0.04 0.00 67 1022.6
20210512143628 36 10 2.0 5.0 0.01 0.04 0.00 67 1022.6
20210512143128 36 10 4.0 4.0 0.01 0.04 0.00 67 1022.5
20210512142628 35 10 0.0 3.0 0.01 0.04 0.00 69 1022.7
20210512142128 35 10 2.0 7.0 0.01 0.04 0.00 70 1022.6
20210512141628 35 345 0.0 5.0 0.00 0.03 0.00 69 1022.7
20210512141128 35 10 0.0 5.0 0.00 0.03 0.00 72 1022.7
20210512140628 34 348 2.0 7.0 0.00 0.03 0.00 71 1022.7
20210512140128 34 10 6.0 7.0 0.00 0.03 0.00 70 1022.8
20210512135628 34 10 4.0 6.0 0.00 0.03 0.00 69 1022.8
20210512135128 34 10 0.0 6.0 0.00 0.03 0.00 70 1022.8
20210512134628 34 10 0.0 2.0 0.00 0.03 0.00 70 1022.7
20210512134128 33 10 0.0 5.0 0.00 0.03 0.00 71 1022.8
20210512133628 33 10 0.0 0.0 0.00 0.03 0.00 73 1022.7
20210512133128 33 10 0.0 0.0 0.00 0.03 0.00 72 1022.8
20210512132628 32 10 0.0 0.0 0.00 0.03 0.00 73 1022.7
20210512132128 32 10 0.0 0.0 0.00 0.03 0.00 72 1022.8
20210512131628 32 10 0.0 7.0 0.00 0.03 0.00 71 1022.6
20210512131128 31 10 4.0 4.0 0.00 0.03 0.00 73 1022.6
20210512130628 31 10 0.0 5.0 0.00 0.03 0.00 74 1022.6
20210512130128 31 10 0.0 0.0 0.00 0.03 0.00 74 1022.4
20210512125628 31 10 0.0 0.0 0.00 0.03 0.00 72 1022.4
20210512125128 30 10 0.0 0.0 0.00 0.03 0.00 73 1022.4
20210512124628 30 10 0.0 0.0 0.00 0.03 0.00 73 1022.4
20210512124128 30 10 0.0 0.0 0.00 0.03 0.00 73 1022.4
20210512123628 30 10 0.0 0.0 0.00 0.03 0.00 72 1022.3
20210512123128 29 10 0.0 0.0 0.00 0.03 0.00 72 1022.5
20210512122628 29 10 0.0 0.0 0.00 0.03 0.00 72 1022.4
20210512122128 29 10 0.0 0.0 0.00 0.03 0.00 72 1022.4
20210512121628 28 10 0.0 0.0 0.00 0.03 0.00 71 1022.4
20210512121128 28 10 0.0 0.0 0.00 0.03 0.00 71 1022.4
20210512120628 28 10 0.0 0.0 0.00 0.03 0.00 72 1022.3
20210512120128 28 10 0.0 8.0 0.00 0.03 0.00 72 1022.5
20210512115628 28 10 2.0 7.0 0.00 0.03 0.00 73 1022.4
20210512115128 28 10 0.0 0.0 0.00 0.03 0.00 74 1022.4
20210512114628 27 10 0.0 7.0 0.00 0.03 0.00 75 1022.3
20210512114128 27 10 0.0 8.0 0.00 0.03 0.00 76 1022.3
20210512113628 27 10 3.0 7.0 0.00 0.03 0.00 78 1022.3
20210512113128 27 10 2.0 7.0 0.00 0.03 0.00 78 1022.2
20210512112628 27 10 0.0 7.0 0.00 0.03 0.00 79 1022.2
20210512112128 27 10 5.0 7.0 0.00 0.03 0.00 79 1022.2
20210512111628 27 10 0.0 7.0 0.00 0.03 0.00 79 1022.1
20210512111128 27 10 2.0 6.0 0.00 0.03 0.00 80 1022.1
20210512110628 27 10 0.0 7.0 0.00 0.03 0.00 80 1022.0
20210512110128 26 10 3.0 9.0 0.00 0.03 0.00 80 1022.0
20210512105628 26 10 1.0 8.0 0.00 0.03 0.00 81 1022.0
20210512105128 26 10 5.0 8.0 0.00 0.03 0.00 81 1022.0
20210512104628 26 10 1.0 7.0 0.00 0.03 0.00 80 1022.1
20210512104128 26 10 0.0 3.0 0.00 0.03 0.00 80 1022.1
20210512103628 26 10 0.0 1.0 0.00 0.03 0.00 80 1022.2
20210512103128 27 10 0.0 2.0 0.00 0.03 0.00 80 1022.1
20210512102628 27 10 0.0 0.0 0.00 0.03 0.00 80 1022.2
20210512102128 27 10 0.0 0.0 0.00 0.03 0.00 80 1022.1
20210512101628 27 10 0.0 0.0 0.00 0.03 0.00 80 1022.1
20210512101128 27 10 0.0 0.0 0.00 0.03 0.00 80 1022.0
20210512100628 27 10 0.0 7.0 0.00 0.03 0.00 80 1022.0
20210512100128 27 10 0.0 8.0 0.00 0.03 0.00 81 1021.9
20210512095628 27 10 3.0 9.0 0.00 0.03 0.00 81 1021.8
20210512095128 27 10 9.0 13.0 0.00 0.03 0.00 82 1021.8
20210512094628 27 10 10.0 10.0 0.00 0.03 0.00 83 1021.8
20210512094128 27 10 7.0 11.0 0.00 0.03 0.00 83 1021.8
20210512093628 27 10 3.0 11.0 0.00 0.03 0.00 84 1021.8
20210512093128 26 10 7.0 10.0 0.00 0.03 0.00 92 1021.9
20210512092628 26 10 4.0 11.0 0.00 0.03 0.00 86 1021.9
20210512092128 25 10 6.0 12.0 0.00 0.03 0.00 86 1021.8
20210512091628 25 10 8.0 9.0 0.00 0.03 0.00 86 1021.9
20210512091128 25 10 0.0 3.0 0.00 0.03 0.00 86 1022.0
20210512090628 25 10 0.0 0.0 0.00 0.03 0.00 86 1022.1
20210512090128 25 10 0.0 0.0 0.00 0.03 0.00 86 1022.1
20210512085628 25 10 0.0 7.0 0.00 0.03 0.00 86 1022.1
20210512085128 25 10 0.0 0.0 0.00 0.03 0.00 86 1022.1
20210512084628 25 10 0.0 0.0 0.00 0.03 0.00 86 1022.0
20210512084128 25 10 0.0 0.0 0.00 0.03 0.00 86 1022.2
20210512083628 25 10 0.0 0.0 0.00 0.03 0.00 86 1022.2
20210512083128 25 10 0.0 0.0 0.00 0.03 0.00 86 1022.2
20210512082628 25 10 0.0 0.0 0.00 0.03 0.00 86 1022.5
20210512082128 25 10 0.0 0.0 0.00 0.03 0.00 86 1022.6
20210512081628 25 10 0.0 0.0 0.00 0.03 0.00 86 1022.5
20210512081128 25 10 0.0 0.0 0.00 0.03 0.00 87 1022.5
20210512080628 25 10 0.0 0.0 0.00 0.03 0.00 86 1022.5
20210512080128 25 10 0.0 0.0 0.00 0.03 0.00 86 1022.6
20210512075628 25 10 0.0 0.0 0.00 0.03 0.00 86 1022.6
20210512075128 25 10 0.0 0.0 0.00 0.03 0.00 86 1022.7
20210512074628 25 10 0.0 0.0 0.00 0.03 0.00 86 1022.7
20210512074128 25 10 0.0 0.0 0.00 0.03 0.00 86 1022.7
20210512073628 26 10 0.0 0.0 0.00 0.03 0.00 86 1022.7
20210512073128 26 10 0.0 0.0 0.00 0.03 0.00 86 1022.7
20210512072628 26 10 0.0 0.0 0.00 0.03 0.00 86 1022.6
20210512072128 26 10 0.0 0.0 0.00 0.03 0.00 86 1022.7
20210512071628 26 10 0.0 0.0 0.00 0.03 0.00 86 1022.8
20210512071128 27 10 0.0 0.0 0.00 0.03 0.00 86 1023.0
20210512070628 27 10 0.0 0.0 0.00 0.03 0.00 86 1023.0
20210512070128 27 10 0.0 0.0 0.00 0.03 0.00 86 1023.1
20210512065628 28 10 0.0 0.0 0.00 0.03 0.00 86 1023.0
20210512065128 28 10 0.0 0.0 0.00 0.03 0.00 86 1023.0
20210512064628 28 10 0.0 0.0 0.00 0.03 0.00 86 1023.1
20210512064128 28 10 0.0 0.0 0.00 0.03 0.00 87 1023.1
20210512063628 28 10 0.0 0.0 0.00 0.03 0.00 87 1023.2
20210512063128 28 10 0.0 0.0 0.00 0.03 0.00 87 1023.3
20210512062628 28 10 0.0 0.0 0.00 0.03 0.00 88 1023.4
20210512062128 28 10 0.0 0.0 0.00 0.03 0.00 88 1023.4
20210512061628 28 10 0.0 0.0 0.00 0.03 0.00 88 1023.3
20210512061128 28 10 0.0 0.0 0.00 0.03 0.00 88 1023.4
20210512060628 28 10 0.0 6.0 0.00 0.03 0.00 89 1023.4
20210512060128 27 10 3.0 8.0 0.00 0.03 0.00 89 1023.4
20210512055628 27 10 4.0 7.0 0.00 0.03 0.00 89 1023.5
20210512055128 27 10 0.0 0.0 0.00 0.03 0.00 89 1023.5
20210512054628 27 176 0.0 0.0 0.00 0.03 0.00 89 1023.5
20210512054128 27 10 0.0 0.0 0.00 0.03 0.00 89 1023.6
20210512053628 27 10 0.0 0.0 0.00 0.03 0.00 89 1023.5
20210512053128 28 10 0.0 6.0 0.00 0.03 0.00 89 1023.6
20210512052628 28 10 0.0 0.0 0.00 0.03 0.00 90 1023.6
20210512052128 28 10 0.0 0.0 0.00 0.03 0.00 90 1023.8
20210512051628 28 10 0.0 0.0 0.00 0.03 0.00 90 1023.8
20210512051128 28 10 0.0 0.0 0.00 0.03 0.00 90 1023.9
20210512050628 28 10 0.0 0.0 0.00 0.03 0.00 90 1024.0
20210512050128 28 10 0.0 3.0 0.00 0.03 0.00 90 1024.0
20210512045628 28 10 3.0 9.0 0.00 0.03 0.00 90 1024.1
20210512045128 27 10 0.0 7.0 0.00 0.03 0.00 90 1024.1
20210512044628 27 10 4.0 7.0 0.00 0.03 0.00 90 1024.2
20210512044128 27 10 0.0 0.0 0.00 0.03 0.00 90 1024.2
20210512043628 28 10 0.0 0.0 0.00 0.03 0.00 90 1024.2
20210512043128 28 10 0.0 0.0 0.00 0.03 0.00 90 1024.3
20210512042628 28 10 0.0 5.0 0.00 0.03 0.00 90 1024.3
20210512042128 28 173 0.0 0.0 0.00 0.03 0.00 90 1024.3
20210512041628 28 173 0.0 0.0 0.00 0.03 0.00 90 1024.3
20210512041128 28 173 0.0 0.0 0.00 0.03 0.00 90 1024.5
20210512040628 28 173 0.0 0.0 0.00 0.03 0.00 90 1024.5
20210512040128 28 173 0.0 0.0 0.00 0.03 0.00 90 1024.4
20210512035628 28 10 0.0 0.0 0.00 0.03 0.00 90 1024.4
20210512035128 28 173 0.0 0.0 0.00 0.03 0.00 90 1024.3
20210512034628 28 173 0.0 0.0 0.00 0.03 0.00 90 1024.4
20210512034128 28 173 0.0 0.0 0.00 0.03 0.00 90 1024.4
20210512033628 28 173 0.0 0.0 0.00 0.03 0.00 90 1024.3
20210512033128 28 173 0.0 0.0 0.00 0.03 0.00 90 1024.3
20210512032628 28 173 0.0 0.0 0.00 0.03 0.00 90 1024.3
20210512032128 28 173 0.0 0.0 0.00 0.03 0.00 90 1024.4
20210512031628 28 173 0.0 0.0 0.00 0.03 0.00 90 1024.4
20210512031128 28 173 0.0 0.0 0.00 0.03 0.00 90 1024.4
20210512030628 28 173 0.0 0.0 0.00 0.03 0.00 90 1024.3
20210512030128 28 173 0.0 0.0 0.00 0.03 0.00 90 1024.3
20210512025628 28 173 0.0 0.0 0.00 0.03 0.00 90 1024.2
20210512025129 28 173 0.0 0.0 0.00 0.03 0.00 90 1024.1
20210512024628 28 173 0.0 0.0 0.00 0.03 0.00 90 1024.1
20210512024128 28 173 0.0 0.0 0.00 0.03 0.00 90 1024.1
20210512023628 28 173 0.0 0.0 0.00 0.03 0.00 90 1024.0
20210512023128 28 173 0.0 0.0 0.00 0.03 0.00 90 1024.0
20210512022628 28 173 0.0 0.0 0.00 0.03 0.00 90 1023.9
20210512022128 28 173 0.0 0.0 0.00 0.03 0.00 89 1023.8
20210512021628 28 173 0.0 0.0 0.00 0.03 0.00 89 1023.8
20210512021128 28 173 0.0 0.0 0.00 0.03 0.00 89 1023.7
20210512020628 28 173 0.0 0.0 0.00 0.03 0.00 89 1023.6
20210512020128 28 10 0.0 0.0 0.00 0.03 0.00 89 1023.6
20210512015628 28 10 0.0 0.0 0.01 0.03 0.00 89 1023.5
20210512015128 28 10 0.0 0.0 0.01 0.03 0.00 89 1023.4
20210512014628 29 10 0.0 0.0 0.01 0.03 0.00 89 1023.3
20210512014128 29 10 0.0 0.0 0.01 0.03 0.00 89 1023.3
20210512013628 29 173 0.0 0.0 0.01 0.03 0.00 89 1023.4
20210512013128 29 10 0.0 0.0 0.01 0.03 0.00 89 1023.2
20210512012628 29 10 0.0 0.0 0.01 0.03 0.00 89 1023.2
20210512012128 30 10 0.0 0.0 0.01 0.03 0.00 89 1023.1
20210512011628 30 10 0.0 0.0 0.01 0.03 0.00 89 1023.0
20210512011128 30 10 0.0 0.0 0.01 0.03 0.00 89 1023.0
20210512010628 30 10 0.0 0.0 0.01 0.03 0.00 89 1022.8
20210512010128 30 10 0.0 0.0 0.01 0.03 0.00 89 1022.8
20210512005628 30 10 0.0 0.0 0.00 0.02 0.00 89 1022.9
20210512005128 30 10 0.0 0.0 0.00 0.02 0.00 89 1022.8
20210512004628 30 10 0.0 0.0 0.00 0.02 0.00 89 1022.8
20210512004128 30 10 0.0 0.0 0.00 0.02 0.00 89 1022.7
20210512003628 30 10 0.0 0.0 0.00 0.02 0.00 89 1022.6
20210512003128 30 10 0.0 0.0 0.00 0.02 0.00 89 1022.4
20210512002628 30 10 0.0 0.0 0.00 0.02 0.00 89 1022.4
20210512002128 30 10 0.0 0.0 0.00 0.02 0.00 89 1022.4
20210512001628 30 10 0.0 0.0 0.00 0.02 0.00 88 1022.2
20210512001128 30 10 0.0 0.0 0.00 0.03 0.00 88 1022.2
20210512000628 30 10 0.0 0.0 0.00 0.03 0.00 88 1022.1
20210512000128 30 10 0.0 0.0 0.00 0.03 0.00 88 1022.1
20210511235628 30 10 0.0 0.0 0.00 0.03 0.00 88 1022.0
20210511235128 30 10 0.0 0.0 0.00 0.03 0.00 88 1021.9
20210511234628 30 10 0.0 0.0 0.00 0.03 0.00 88 1021.8
20210511234128 30 10 0.0 0.0 0.00 0.03 0.00 88 1021.7
20210511233628 30 10 0.0 0.0 0.00 0.03 0.00 88 1021.5
20210511233128 30 10 0.0 0.0 0.00 0.03 0.00 88 1021.5
20210511232628 30 10 0.0 5.0 0.01 0.03 0.00 87 1021.3
20210511232128 31 10 0.0 0.0 0.01 0.03 0.00 88 1021.4
20210511231628 31 10 0.0 0.0 0.01 0.04 0.00 88 1021.4
20210511231128 31 10 0.0 0.0 0.01 0.04 0.00 87 1021.1
20210511230628 31 10 0.0 0.0 0.01 0.04 0.00 87 1021.1
20210511230128 31 10 0.0 0.0 0.01 0.04 0.00 87 1021.0
20210511225628 31 10 0.0 0.0 0.01 0.04 0.00 87 1020.9
20210511225128 31 10 0.0 0.0 0.01 0.04 0.00 87 1020.8
20210511224628 31 10 0.0 0.0 0.01 0.04 0.00 87 1020.8
20210511224128 31 10 0.0 0.0 0.01 0.04 0.00 87 1020.5
20210511223628 31 10 0.0 0.0 0.01 0.04 0.00 87 1020.4
20210511223128 31 10 0.0 0.0 0.01 0.04 0.00 87 1020.2
20210511222628 31 10 0.0 7.0 0.00 0.04 0.00 86 1020.1
20210511222128 31 10 0.0 8.0 0.00 0.04 0.00 86 1020.1
20210511221628 32 10 0.0 6.0 0.00 0.04 0.00 86 1020.1
20210511221128 32 10 0.0 3.0 0.00 0.04 0.00 86 1020.0
20210511220628 31 10 0.0 4.0 0.00 0.04 0.00 86 1020.0
20210511220128 31 10 0.0 6.0 0.00 0.05 0.00 86 1019.9
20210511215628 31 10 0.0 7.0 0.00 0.05 0.00 86 1019.9
20210511215128 32 97 2.0 5.0 0.00 0.05 0.00 87 1019.9
20210511214628 31 136 0.0 0.0 0.00 0.06 0.00 87 1019.9
20210511214128 31 136 0.0 7.0 0.00 0.06 0.00 87 1019.8
20210511213628 30 10 0.0 0.0 0.00 0.06 0.00 87 1019.8
20210511213128 31 163 0.0 0.0 0.00 0.06 0.00 87 1019.7
20210511212628 31 163 0.0 0.0 0.00 0.07 0.00 86 1019.6
20210511212128 31 10 0.0 0.0 0.00 0.07 0.00 85 1019.5
20210511211628 32 10 0.0 0.0 0.00 0.07 0.00 85 1019.4
20210511211128 32 10 0.0 0.0 0.00 0.07 0.00 85 1019.2
20210511210628 32 88 0.0 0.0 0.00 0.07 0.00 84 1019.0
20210511210128 33 10 0.0 0.0 0.00 0.07 0.00 85 1018.8
20210511205628 33 10 0.0 3.0 0.00 0.07 0.00 86 1018.8
20210511205128 33 86 3.0 5.0 0.00 0.07 0.00 86 1018.8
20210511204628 32 10 0.0 0.0 0.00 0.07 0.00 87 1018.8
20210511204128 32 10 0.0 0.0 0.00 0.08 0.00 88 1018.7
20210511203628 31 10 0.0 0.0 0.00 0.08 0.00 88 1018.6
20210511203128 30 10 0.0 0.0 0.00 0.08 0.00 88 1018.6
20210511202628 30 10 0.0 0.0 0.00 0.09 0.00 89 1018.6
20210511202128 29 10 0.0 0.0 0.00 0.09 0.00 89 1018.5
20210511201628 29 10 0.0 0.0 0.00 0.10 0.00 89 1018.5
20210511201128 29 10 0.0 0.0 0.00 0.10 0.00 89 1018.5
20210511200628 28 10 0.0 0.0 0.00 0.11 0.00 89 1018.5
20210511200128 28 10 0.0 0.0 0.00 0.12 0.00 89 1018.5
20210511195628 28 10 0.0 2.0 0.00 0.13 0.00 89 1018.4
20210511195128 27 10 0.0 0.0 0.01 0.13 0.00 89 1018.4
20210511194628 27 10 0.0 0.0 0.01 0.14 0.00 89 1018.3
20210511194128 27 10 0.0 0.0 0.01 0.14 0.00 89 1018.3
20210511193628 27 10 0.0 4.0 0.01 0.16 0.00 89 1018.2
20210511193128 27 10 0.0 7.0 0.01 0.16 0.00 89 1018.1
20210511192628 27 10 0.0 7.0 0.01 0.16 0.00 89 1018.0
20210511192128 27 10 5.0 9.0 0.01 0.17 0.00 89 1018.1
20210511191628 27 10 0.0 8.0 0.01 0.17 0.00 89 1018.1
20210511191128 28 10 4.0 9.0 0.01 0.17 0.00 88 1017.8
20210511190628 28 10 3.0 9.0 0.01 0.18 0.00 88 1017.5
20210511190128 28 10 1.0 7.0 0.01 0.18 0.00 88 1017.2
20210511185628 28 10 0.0 0.0 0.01 0.18 0.00 88 1017.2
20210511185128 28 10 0.0 0.0 0.00 0.17 0.00 88 1017.1
20210511184628 28 10 0.0 0.0 0.00 0.17 0.00 88 1017.1
20210511184128 28 10 0.0 0.0 0.00 0.17 0.00 88 1017.0
20210511183628 28 10 0.0 0.0 0.00 0.18 0.00 88 1017.0
20210511183128 28 10 0.0 0.0 0.00 0.18 0.00 88 1017.1
20210511182628 29 10 0.0 0.0 0.00 0.18 0.00 87 1016.9
20210511182128 29 10 0.0 7.0 0.00 0.18 0.00 88 1017.0
20210511181628 29 10 0.0 0.0 0.00 0.18 0.00 88 1016.9
20210511181128 29 10 0.0 7.0 0.00 0.18 0.00 87 1016.7
20210511180630 29 10 0.0 7.0 0.00 0.18 0.00 88 1016.6
20210511180128 30 10 1.0 7.0 0.00 0.18 0.00 88 1016.4
20210511175628 30 10 0.0 8.0 0.00 0.18 0.00 87 1016.4
20210511175128 30 10 3.0 7.0 0.00 0.18 0.00 87 1016.3
20210511174628 30 10 0.0 7.0 0.00 0.18 0.00 87 1016.1
20210511174128 31 10 0.0 0.0 0.00 0.18 0.00 87 1016.2
20210511173628 30 10 0.0 0.0 0.00 0.18 0.00 87 1016.1
20210511173128 30 10 0.0 6.0 0.00 0.18 0.00 87 1016.0
20210511172628 30 10 0.0 0.0 0.00 0.18 0.00 87 1016.0
20210511172128 30 101 0.0 5.0 0.00 0.18 0.00 86 1016.0
20210511171628 30 10 0.0 5.0 0.00 0.18 0.00 87 1016.0
20210511171128 30 10 3.0 4.0 0.00 0.18 0.00 86 1015.9
20210511170628 30 84 0.0 0.0 0.00 0.18 0.00 86 1015.8
20210511170128 30 10 0.0 0.0 0.00 0.18 0.00 86 1015.8
20210511165628 30 10 0.0 5.0 0.00 0.18 0.00 86 1015.6
20210511165128 30 10 0.0 0.0 0.00 0.18 0.00 85 1015.6
20210511164628 30 10 0.0 5.0 0.00 0.18 0.00 85 1015.6
20210511164128 30 10 0.0 0.0 0.00 0.18 0.00 85 1015.6
20210511163628 30 10 0.0 0.0 0.00 0.18 0.00 85 1015.5
20210511163128 30 358 0.0 0.0 0.00 0.18 0.00 85 1015.6
20210511162628 30 358 0.0 0.0 0.00 0.18 0.00 84 1015.6
20210511162128 30 352 0.0 0.0 0.00 0.18 0.00 84 1015.5
20210511161628 31 10 0.0 0.0 0.00 0.18 0.00 84 1015.4
20210511161128 30 352 0.0 0.0 0.00 0.18 0.00 84 1015.3
20210511160628 30 352 0.0 0.0 0.00 0.18 0.00 85 1015.4
20210511160128 30 10 0.0 0.0 0.00 0.18 0.00 85 1015.3
20210511155628 30 10 0.0 0.0 0.00 0.18 0.00 85 1015.3
20210511155128 30 10 0.0 0.0 0.00 0.18 0.00 86 1015.2
20210511154628 29 354 0.0 0.0 0.00 0.18 0.00 86 1015.1
20210511154128 29 354 0.0 0.0 0.00 0.18 0.00 87 1015.0
20210511153628 29 353 0.0 0.0 0.00 0.18 0.00 87 1015.0
20210511153128 29 10 0.0 0.0 0.00 0.18 0.00 87 1015.1
20210511152628 29 10 0.0 0.0 0.00 0.18 0.00 87 1015.1
20210511152128 29 10 0.0 0.0 0.00 0.18 0.00 88 1015.1
20210511151628 29 10 0.0 0.0 0.00 0.18 0.00 87 1015.0
20210511151128 28 10 0.0 0.0 0.00 0.18 0.00 87 1015.1
20210511150628 29 10 0.0 0.0 0.00 0.18 0.00 88 1015.1
20210511150128 29 10 0.0 0.0 0.00 0.18 0.00 88 1015.1
20210511145628 28 10 0.0 0.0 0.00 0.18 0.00 88 1015.1
20210511145128 28 10 0.0 0.0 0.00 0.18 0.00 89 1015.1